| time (UTC) | temp F | wind direction | speed MPH | gust MPH | rain 1hr in | rain 24hr in | rain mn in | humidity % | barometer mb |
| 20260508205325 | 58 | 360 | 1.0 | 10.0 | 0.00 | 0.00 | 0.00 | 40 | 1008.8 |
| 20260508204802 | 58 | 360 | 3.0 | 10.0 | 0.00 | 0.00 | 0.00 | 39 | 1008.8 |
| 20260508204317 | 58 | 360 | 2.0 | 6.0 | 0.00 | 0.00 | 0.00 | 40 | 1008.8 |
| 20260508203757 | 58 | 360 | 2.0 | 8.0 | 0.00 | 0.00 | 0.00 | 39 | 1008.8 |
| 20260508203259 | 59 | 360 | 2.0 | 8.0 | 0.00 | 0.00 | 0.00 | 39 | 1008.8 |
| 20260508202758 | 59 | 360 | 2.0 | 7.0 | 0.00 | 0.00 | 0.00 | 39 | 1008.8 |
| 20260508202256 | 59 | 360 | 3.0 | 7.0 | 0.00 | 0.00 | 0.00 | 39 | 1008.6 |
| 20260508201756 | 59 | 360 | 3.0 | 8.0 | 0.00 | 0.00 | 0.00 | 39 | 1008.6 |
| 20260508201311 | 59 | 360 | 3.0 | 8.0 | 0.00 | 0.00 | 0.00 | 38 | 1008.6 |
| 20260508200810 | 59 | 360 | 1.0 | 4.0 | 0.00 | 0.00 | 0.00 | 42 | 1008.4 |
| 20260508200302 | 58 | 360 | 2.0 | 6.0 | 0.00 | 0.00 | 0.00 | 41 | 1008.4 |
| 20260508195802 | 59 | 360 | 3.0 | 10.0 | 0.00 | 0.00 | 0.00 | 39 | 1008.4 |
| 20260508195259 | 59 | 360 | 4.0 | 10.0 | 0.00 | 0.00 | 0.00 | 38 | 1008.7 |
| 20260508194834 | 59 | 360 | 1.0 | 10.0 | 0.00 | 0.00 | 0.00 | 40 | 1008.7 |
| 20260508194309 | 59 | 360 | 3.0 | 10.0 | 0.00 | 0.00 | 0.00 | 38 | 1008.7 |
| 20260508193810 | 59 | 360 | 2.0 | 6.0 | 0.00 | 0.00 | 0.00 | 39 | 1008.8 |
| 20260508193307 | 59 | 360 | 3.0 | 6.0 | 0.00 | 0.00 | 0.00 | 39 | 1008.8 |
| 20260508192812 | 58 | 360 | 1.0 | 5.0 | 0.00 | 0.00 | 0.00 | 42 | 1008.8 |
| 20260508192307 | 57 | 360 | 1.0 | 4.0 | 0.00 | 0.00 | 0.00 | 44 | 1008.9 |
| 20260508191805 | 57 | 360 | 2.0 | 7.0 | 0.00 | 0.00 | 0.00 | 42 | 1008.9 |
| 20260508191304 | 56 | 360 | 3.0 | 7.0 | 0.00 | 0.00 | 0.00 | 41 | 1008.9 |
| 20260508190801 | 56 | 360 | 3.0 | 11.0 | 0.00 | 0.00 | 0.00 | 40 | 1008.9 |
| 20260508190314 | 56 | 360 | 3.0 | 11.0 | 0.00 | 0.00 | 0.00 | 41 | 1008.9 |
| 20260508185753 | 56 | 360 | 4.0 | 8.0 | 0.00 | 0.00 | 0.00 | 40 | 1008.9 |
| 20260508185254 | 56 | 360 | 3.0 | 6.0 | 0.00 | 0.00 | 0.00 | 40 | 1009.0 |
| 20260508184813 | 56 | 360 | 2.0 | 5.0 | 0.00 | 0.00 | 0.00 | 40 | 1009.0 |
| 20260508184312 | 56 | 360 | 2.0 | 4.0 | 0.00 | 0.00 | 0.00 | 40 | 1009.0 |
| 20260508183812 | 56 | 360 | 1.0 | 7.0 | 0.00 | 0.00 | 0.00 | 40 | 1009.0 |
| 20260508183257 | 56 | 360 | 3.0 | 7.0 | 0.00 | 0.00 | 0.00 | 39 | 1009.0 |
| 20260508182817 | 56 | 360 | 1.0 | 6.0 | 0.00 | 0.00 | 0.00 | 40 | 1009.0 |
| 20260508182257 | 56 | 360 | 1.0 | 4.0 | 0.00 | 0.00 | 0.00 | 39 | 1009.1 |
| 20260508181815 | 56 | 360 | 1.0 | 3.0 | 0.00 | 0.00 | 0.00 | 40 | 1009.1 |
| 20260508181259 | 56 | 360 | 1.0 | 4.0 | 0.00 | 0.00 | 0.00 | 39 | 1009.1 |
| 20260508180801 | 56 | 360 | 1.0 | 5.0 | 0.00 | 0.00 | 0.00 | 39 | 1009.1 |
| 20260508180256 | 57 | 360 | 1.0 | 6.0 | 0.00 | 0.00 | 0.00 | 39 | 1009.1 |
| 20260508175810 | 57 | 360 | 2.0 | 6.0 | 0.00 | 0.00 | 0.00 | 39 | 1009.1 |
| 20260508175306 | 57 | 360 | 1.0 | 4.0 | 0.00 | 0.00 | 0.00 | 39 | 1009.3 |
| 20260508174803 | 57 | 360 | 1.0 | 5.0 | 0.00 | 0.00 | 0.00 | 39 | 1009.3 |
| 20260508174301 | 57 | 360 | 2.0 | 5.0 | 0.00 | 0.00 | 0.00 | 39 | 1009.3 |
| 20260508173820 | 57 | 360 | 2.0 | 4.0 | 0.00 | 0.00 | 0.00 | 39 | 1009.2 |
| 20260508173257 | 57 | 360 | 2.0 | 6.0 | 0.00 | 0.00 | 0.00 | 40 | 1009.2 |
| 20260508172816 | 57 | 360 | 1.0 | 6.0 | 0.00 | 0.00 | 0.00 | 39 | 1009.2 |
| 20260508172257 | 57 | 360 | 1.0 | 4.0 | 0.00 | 0.00 | 0.00 | 37 | 1008.9 |
| 20260508171756 | 57 | 360 | 1.0 | 4.0 | 0.00 | 0.00 | 0.00 | 37 | 1008.9 |
| 20260508171255 | 57 | 360 | 1.0 | 6.0 | 0.00 | 0.00 | 0.00 | 37 | 1008.9 |
| 20260508170758 | 57 | 360 | 2.0 | 6.0 | 0.00 | 0.00 | 0.00 | 37 | 1008.7 |
| 20260508170303 | 57 | 360 | 1.0 | 5.0 | 0.00 | 0.00 | 0.00 | 38 | 1008.7 |
| 20260508165803 | 58 | 360 | 1.0 | 4.0 | 0.00 | 0.00 | 0.00 | 38 | 1008.7 |
| 20260508165301 | 57 | 360 | 1.0 | 4.0 | 0.00 | 0.00 | 0.00 | 38 | 1008.8 |
| 20260508164757 | 57 | 360 | 1.0 | 5.0 | 0.00 | 0.00 | 0.00 | 40 | 1008.8 |
| 20260508164313 | 58 | 360 | 2.0 | 5.0 | 0.00 | 0.00 | 0.00 | 37 | 1008.8 |
| 20260508163835 | 58 | 360 | 2.0 | 4.0 | 0.00 | 0.00 | 0.00 | 37 | 1008.9 |
| 20260508163334 | 58 | 360 | 1.0 | 4.0 | 0.00 | 0.00 | 0.00 | 37 | 1008.9 |
| 20260508162808 | 58 | 360 | 1.0 | 3.0 | 0.00 | 0.00 | 0.00 | 38 | 1008.9 |
| 20260508162307 | 58 | 360 | 1.0 | 7.0 | 0.00 | 0.00 | 0.00 | 38 | 1008.8 |
| 20260508161810 | 58 | 360 | 3.0 | 7.0 | 0.00 | 0.00 | 0.00 | 37 | 1008.8 |
| 20260508161312 | 58 | 360 | 2.0 | 4.0 | 0.00 | 0.00 | 0.00 | 40 | 1008.8 |
| 20260508160831 | 58 | 360 | 1.0 | 5.0 | 0.00 | 0.00 | 0.00 | 40 | 1008.9 |
| 20260508160334 | 57 | 360 | 2.0 | 4.0 | 0.00 | 0.00 | 0.00 | 42 | 1008.9 |
| 20260508155813 | 57 | 360 | 1.0 | 5.0 | 0.00 | 0.00 | 0.00 | 42 | 1008.9 |
| 20260508155253 | 56 | 360 | 1.0 | 5.0 | 0.00 | 0.00 | 0.00 | 42 | 1009.2 |
| 20260508154757 | 56 | 360 | 1.0 | 3.0 | 0.00 | 0.00 | 0.00 | 42 | 1009.2 |
| 20260508154256 | 56 | 360 | 2.0 | 5.0 | 0.00 | 0.00 | 0.00 | 42 | 1009.2 |
| 20260508153800 | 56 | 360 | 1.0 | 10.0 | 0.00 | 0.00 | 0.00 | 42 | 1009.4 |
| 20260508153303 | 56 | 360 | 4.0 | 10.0 | 0.00 | 0.00 | 0.00 | 41 | 1009.4 |
| 20260508152802 | 56 | 360 | 2.0 | 8.0 | 0.00 | 0.00 | 0.00 | 42 | 1009.4 |
| 20260508152259 | 56 | 360 | 5.0 | 8.0 | 0.00 | 0.00 | 0.00 | 41 | 1009.4 |
| 20260508151835 | 56 | 360 | 1.0 | 5.0 | 0.00 | 0.00 | 0.00 | 43 | 1009.4 |
| 20260508151310 | 55 | 360 | 2.0 | 6.0 | 0.00 | 0.00 | 0.00 | 44 | 1009.4 |
| 20260508150809 | 55 | 360 | 3.0 | 6.0 | 0.00 | 0.00 | 0.00 | 43 | 1009.4 |
| 20260508150318 | 55 | 360 | 0.0 | 4.0 | 0.00 | 0.00 | 0.00 | 45 | 1009.4 |
| 20260508145800 | 55 | 360 | 1.0 | 5.0 | 0.00 | 0.00 | 0.00 | 47 | 1009.4 |
| 20260508145316 | 55 | 360 | 0.0 | 5.0 | 0.00 | 0.00 | 0.00 | 45 | 1009.4 |
| 20260508144800 | 55 | 360 | 2.0 | 4.0 | 0.00 | 0.00 | 0.00 | 45 | 1009.4 |
| 20260508144302 | 55 | 360 | 1.0 | 4.0 | 0.00 | 0.00 | 0.00 | 44 | 1009.4 |
| 20260508143808 | 56 | 360 | 2.0 | 3.0 | 0.00 | 0.00 | 0.00 | 46 | 1009.6 |
| 20260508143322 | 56 | 349 | 1.0 | 9.0 | 0.00 | 0.00 | 0.00 | 46 | 1009.6 |
| 20260508142801 | 56 | 360 | 3.0 | 9.0 | 0.00 | 0.00 | 0.00 | 47 | 1009.6 |
| 20260508142301 | 55 | 360 | 1.0 | 3.0 | 0.00 | 0.00 | 0.00 | 47 | 1009.8 |
| 20260508141759 | 55 | 360 | 1.0 | 4.0 | 0.00 | 0.00 | 0.00 | 49 | 1009.8 |
| 20260508141258 | 55 | 360 | 1.0 | 4.0 | 0.00 | 0.00 | 0.00 | 48 | 1009.8 |
| 20260508140814 | 54 | 360 | 2.0 | 4.0 | 0.00 | 0.00 | 0.00 | 49 | 1009.9 |
| 20260508140309 | 54 | 40 | 1.0 | 6.0 | 0.00 | 0.00 | 0.00 | 49 | 1009.9 |
| 20260508135807 | 54 | 360 | 2.0 | 6.0 | 0.00 | 0.00 | 0.00 | 50 | 1009.9 |
| 20260508135314 | 54 | 360 | 1.0 | 6.0 | 0.00 | 0.00 | 0.00 | 50 | 1010.0 |
| 20260508134810 | 54 | 360 | 2.0 | 6.0 | 0.00 | 0.00 | 0.00 | 49 | 1010.0 |
| 20260508134329 | 53 | 360 | 1.0 | 4.0 | 0.00 | 0.00 | 0.00 | 51 | 1010.0 |
| 20260508133806 | 53 | 360 | 1.0 | 4.0 | 0.00 | 0.00 | 0.00 | 50 | 1010.0 |
| 20260508133308 | 53 | 360 | 1.0 | 4.0 | 0.00 | 0.00 | 0.00 | 49 | 1010.0 |
| 20260508132804 | 53 | 360 | 1.0 | 4.0 | 0.00 | 0.00 | 0.00 | 51 | 1010.0 |
| 20260508132301 | 53 | 360 | 1.0 | 5.0 | 0.00 | 0.00 | 0.00 | 50 | 1010.2 |
| 20260508131800 | 53 | 360 | 1.0 | 5.0 | 0.00 | 0.00 | 0.00 | 52 | 1010.2 |
| 20260508131321 | 52 | 360 | 2.0 | 6.0 | 0.00 | 0.00 | 0.00 | 52 | 1010.2 |
| 20260508130801 | 52 | 360 | 2.0 | 6.0 | 0.00 | 0.00 | 0.00 | 53 | 1010.0 |
| 20260508130306 | 51 | 360 | 1.0 | 4.0 | 0.00 | 0.00 | 0.00 | 54 | 1010.0 |
| 20260508125804 | 51 | 360 | 1.0 | 5.0 | 0.00 | 0.00 | 0.00 | 54 | 1010.0 |
| 20260508125306 | 50 | 360 | 1.0 | 6.0 | 0.00 | 0.00 | 0.00 | 55 | 1010.0 |
| 20260508124808 | 49 | 360 | 3.0 | 5.0 | 0.00 | 0.00 | 0.00 | 57 | 1010.0 |
| 20260508124313 | 48 | 360 | 1.0 | 4.0 | 0.00 | 0.00 | 0.00 | 60 | 1010.0 |
| 20260508123755 | 47 | 360 | 1.0 | 4.0 | 0.00 | 0.00 | 0.00 | 62 | 1010.0 |
| 20260508123302 | 46 | 360 | 1.0 | 4.0 | 0.00 | 0.00 | 0.00 | 63 | 1010.0 |
| 20260508122804 | 46 | 342 | 1.0 | 2.0 | 0.00 | 0.00 | 0.00 | 65 | 1010.0 |
| 20260508122307 | 45 | 360 | 1.0 | 2.0 | 0.00 | 0.00 | 0.00 | 66 | 1010.0 |
| 20260508121821 | 45 | 345 | 0.0 | 1.0 | 0.00 | 0.00 | 0.00 | 68 | 1010.0 |
| 20260508121304 | 44 | 345 | 0.0 | 1.0 | 0.00 | 0.00 | 0.00 | 69 | 1010.0 |
| 20260508120802 | 44 | 345 | 0.0 | 2.0 | 0.00 | 0.00 | 0.00 | 70 | 1010.0 |
| 20260508120254 | 43 | 346 | 0.0 | 3.0 | 0.00 | 0.00 | 0.00 | 72 | 1010.0 |
| 20260508115754 | 43 | 343 | 1.0 | 3.0 | 0.00 | 0.00 | 0.00 | 74 | 1010.0 |
| 20260508115335 | 42 | 227 | 1.0 | 3.0 | 0.00 | 0.00 | 0.00 | 75 | 1009.9 |
| 20260508114811 | 42 | 227 | 1.0 | 3.0 | 0.00 | 0.00 | 0.00 | 77 | 1009.9 |
| 20260508114315 | 41 | 227 | 0.0 | 4.0 | 0.00 | 0.00 | 0.00 | 79 | 1009.9 |
| 20260508113829 | 40 | 227 | 1.0 | 4.0 | 0.00 | 0.00 | 0.00 | 81 | 1009.9 |
| 20260508113307 | 40 | 227 | 1.0 | 3.0 | 0.00 | 0.00 | 0.00 | 85 | 1009.9 |
| 20260508112804 | 39 | 227 | 2.0 | 3.0 | 0.00 | 0.00 | 0.00 | 87 | 1009.9 |
| 20260508112306 | 39 | 227 | 0.0 | 2.0 | 0.00 | 0.00 | 0.00 | 89 | 1009.6 |
| 20260508111822 | 38 | 227 | 0.0 | 0.0 | 0.00 | 0.00 | 0.00 | 89 | 1009.6 |
| 20260508111307 | 38 | 227 | 0.0 | 0.0 | 0.00 | 0.00 | 0.00 | 89 | 1009.6 |
| 20260508110803 | 38 | 227 | 0.0 | 0.0 | 0.00 | 0.00 | 0.00 | 89 | 1009.6 |
| 20260508110256 | 37 | 227 | 0.0 | 0.0 | 0.00 | 0.00 | 0.00 | 89 | 1009.6 |
| 20260508105758 | 37 | 227 | 0.0 | 0.0 | 0.00 | 0.00 | 0.00 | 88 | 1009.6 |
| 20260508105317 | 37 | 227 | 0.0 | 0.0 | 0.00 | 0.00 | 0.00 | 88 | 1009.5 |
| 20260508104758 | 37 | 227 | 0.0 | 0.0 | 0.00 | 0.00 | 0.00 | 87 | 1009.5 |
| 20260508104256 | 36 | 227 | 0.0 | 0.0 | 0.00 | 0.00 | 0.00 | 87 | 1009.5 |
| 20260508103757 | 36 | 227 | 0.0 | 0.0 | 0.00 | 0.00 | 0.00 | 87 | 1009.4 |
| 20260508103301 | 36 | 227 | 0.0 | 0.0 | 0.00 | 0.00 | 0.00 | 86 | 1009.4 |
| 20260508102813 | 36 | 227 | 0.0 | 0.0 | 0.00 | 0.00 | 0.00 | 86 | 1009.4 |
| 20260508102332 | 36 | 227 | 0.0 | 0.0 | 0.00 | 0.00 | 0.00 | 85 | 1009.4 |
| 20260508101811 | 36 | 227 | 0.0 | 0.0 | 0.00 | 0.00 | 0.00 | 85 | 1009.4 |
| 20260508101327 | 36 | 227 | 0.0 | 0.0 | 0.00 | 0.00 | 0.00 | 85 | 1009.4 |
| 20260508100802 | 36 | 227 | 0.0 | 0.0 | 0.00 | 0.00 | 0.00 | 85 | 1009.2 |
| 20260508100300 | 36 | 227 | 0.0 | 0.0 | 0.00 | 0.00 | 0.00 | 85 | 1009.2 |
| 20260508095756 | 36 | 227 | 0.0 | 0.0 | 0.00 | 0.00 | 0.00 | 85 | 1009.2 |
| 20260508095257 | 36 | 227 | 0.0 | 0.0 | 0.00 | 0.00 | 0.00 | 85 | 1009.0 |
| 20260508094800 | 37 | 227 | 0.0 | 0.0 | 0.00 | 0.00 | 0.00 | 84 | 1009.0 |
| 20260508094259 | 37 | 227 | 0.0 | 0.0 | 0.00 | 0.00 | 0.00 | 84 | 1009.0 |
| 20260508093801 | 37 | 227 | 0.0 | 0.0 | 0.00 | 0.00 | 0.00 | 85 | 1008.9 |
| 20260508093259 | 37 | 227 | 0.0 | 0.0 | 0.00 | 0.00 | 0.00 | 84 | 1008.9 |
| 20260508092820 | 37 | 227 | 0.0 | 0.0 | 0.00 | 0.00 | 0.00 | 85 | 1008.9 |
| 20260508092257 | 37 | 227 | 0.0 | 0.0 | 0.00 | 0.00 | 0.00 | 85 | 1008.9 |
| 20260508091757 | 37 | 227 | 0.0 | 0.0 | 0.00 | 0.00 | 0.00 | 85 | 1008.9 |
| 20260508091321 | 37 | 227 | 0.0 | 0.0 | 0.00 | 0.00 | 0.00 | 84 | 1008.9 |
| 20260508090803 | 37 | 227 | 0.0 | 0.0 | 0.00 | 0.00 | 0.00 | 84 | 1008.8 |
| 20260508090257 | 37 | 227 | 0.0 | 0.0 | 0.00 | 0.00 | 0.00 | 84 | 1008.8 |
| 20260508085833 | 37 | 227 | 0.0 | 0.0 | 0.00 | 0.00 | 0.00 | 84 | 1008.8 |
| 20260508085331 | 37 | 227 | 0.0 | 0.0 | 0.00 | 0.00 | 0.00 | 84 | 1008.9 |
| 20260508084810 | 37 | 227 | 0.0 | 0.0 | 0.00 | 0.00 | 0.00 | 83 | 1008.9 |
| 20260508084309 | 37 | 227 | 0.0 | 0.0 | 0.00 | 0.00 | 0.00 | 83 | 1008.9 |
| 20260508083808 | 37 | 227 | 0.0 | 0.0 | 0.00 | 0.00 | 0.00 | 83 | 1008.9 |
| 20260508083328 | 37 | 227 | 0.0 | 0.0 | 0.00 | 0.00 | 0.00 | 83 | 1008.9 |
| 20260508082801 | 37 | 227 | 0.0 | 0.0 | 0.00 | 0.00 | 0.00 | 82 | 1008.9 |
| 20260508082315 | 37 | 227 | 0.0 | 0.0 | 0.00 | 0.00 | 0.00 | 82 | 1008.9 |
| 20260508081757 | 37 | 227 | 0.0 | 0.0 | 0.00 | 0.00 | 0.00 | 82 | 1008.9 |
| 20260508081257 | 37 | 227 | 0.0 | 0.0 | 0.00 | 0.00 | 0.00 | 82 | 1008.9 |
| 20260508080815 | 37 | 227 | 0.0 | 0.0 | 0.00 | 0.00 | 0.00 | 82 | 1008.5 |
| 20260508080318 | 37 | 227 | 0.0 | 0.0 | 0.00 | 0.00 | 0.00 | 82 | 1008.5 |
| 20260508075810 | 37 | 227 | 0.0 | 0.0 | 0.00 | 0.00 | 0.00 | 82 | 1008.5 |
| 20260508075308 | 37 | 227 | 0.0 | 1.0 | 0.00 | 0.00 | 0.00 | 82 | 1008.5 |
| 20260508074814 | 37 | 227 | 0.0 | 1.0 | 0.00 | 0.00 | 0.00 | 82 | 1008.5 |
| 20260508074315 | 37 | 227 | 0.0 | 0.0 | 0.00 | 0.00 | 0.00 | 81 | 1008.5 |
| 20260508073806 | 37 | 227 | 0.0 | 0.0 | 0.00 | 0.00 | 0.00 | 80 | 1008.5 |
| 20260508073300 | 38 | 227 | 0.0 | 0.0 | 0.00 | 0.00 | 0.00 | 79 | 1008.5 |
| 20260508072815 | 38 | 227 | 0.0 | 0.0 | 0.00 | 0.00 | 0.00 | 79 | 1008.5 |
| 20260508072322 | 38 | 227 | 0.0 | 0.0 | 0.00 | 0.00 | 0.00 | 78 | 1008.3 |
| 20260508071758 | 38 | 227 | 0.0 | 0.0 | 0.00 | 0.00 | 0.00 | 78 | 1008.3 |
| 20260508071314 | 38 | 227 | 0.0 | 0.0 | 0.00 | 0.00 | 0.00 | 78 | 1008.3 |
| 20260508070801 | 38 | 227 | 0.0 | 0.0 | 0.00 | 0.00 | 0.00 | 78 | 1008.0 |
| 20260508070309 | 38 | 227 | 0.0 | 0.0 | 0.00 | 0.00 | 0.00 | 78 | 1008.0 |
| 20260508065802 | 38 | 227 | 0.0 | 0.0 | 0.00 | 0.00 | 0.00 | 78 | 1008.0 |
| 20260508065318 | 38 | 227 | 0.0 | 0.0 | 0.00 | 0.00 | 0.00 | 77 | 1007.9 |
| 20260508064811 | 39 | 227 | 0.0 | 0.0 | 0.00 | 0.00 | 0.00 | 77 | 1007.9 |
| 20260508064302 | 39 | 227 | 0.0 | 0.0 | 0.00 | 0.00 | 0.00 | 77 | 1007.9 |
| 20260508063812 | 39 | 227 | 0.0 | 0.0 | 0.00 | 0.00 | 0.00 | 77 | 1007.9 |
| 20260508063257 | 39 | 227 | 0.0 | 0.0 | 0.00 | 0.00 | 0.00 | 77 | 1007.9 |
| 20260508062812 | 39 | 227 | 0.0 | 0.0 | 0.00 | 0.00 | 0.00 | 76 | 1007.9 |
| 20260508062329 | 39 | 227 | 0.0 | 0.0 | 0.00 | 0.00 | 0.00 | 77 | 1007.9 |
| 20260508061806 | 39 | 227 | 0.0 | 0.0 | 0.00 | 0.00 | 0.00 | 76 | 1007.9 |
| 20260508061305 | 40 | 227 | 0.0 | 0.0 | 0.00 | 0.00 | 0.00 | 76 | 1007.9 |
| 20260508060801 | 40 | 227 | 0.0 | 0.0 | 0.00 | 0.00 | 0.00 | 76 | 1007.8 |
| 20260508060326 | 40 | 227 | 0.0 | 0.0 | 0.00 | 0.00 | 0.00 | 76 | 1007.8 |
| 20260508055815 | 40 | 227 | 0.0 | 0.0 | 0.00 | 0.00 | 0.00 | 76 | 1007.8 |
| 20260508055315 | 40 | 227 | 0.0 | 0.0 | 0.00 | 0.00 | 0.00 | 76 | 1007.9 |
| 20260508054807 | 40 | 227 | 0.0 | 0.0 | 0.00 | 0.00 | 0.00 | 77 | 1007.9 |
| 20260508054304 | 40 | 227 | 0.0 | 0.0 | 0.00 | 0.00 | 0.00 | 76 | 1007.9 |
| 20260508053756 | 40 | 227 | 0.0 | 0.0 | 0.00 | 0.00 | 0.00 | 76 | 1007.9 |
| 20260508053256 | 41 | 227 | 0.0 | 0.0 | 0.00 | 0.00 | 0.00 | 76 | 1007.9 |
| 20260508052813 | 41 | 227 | 0.0 | 0.0 | 0.00 | 0.00 | 0.00 | 77 | 1007.9 |
| 20260508052334 | 41 | 227 | 0.0 | 0.0 | 0.00 | 0.00 | 0.00 | 77 | 1008.0 |
| 20260508051804 | 41 | 227 | 0.0 | 0.0 | 0.00 | 0.00 | 0.00 | 76 | 1008.0 |
| 20260508051304 | 41 | 227 | 0.0 | 0.0 | 0.00 | 0.00 | 0.00 | 75 | 1008.0 |
| 20260508050755 | 41 | 227 | 0.0 | 0.0 | 0.00 | 0.00 | 0.00 | 75 | 1008.1 |
| 20260508050259 | 41 | 227 | 0.0 | 0.0 | 0.00 | 0.00 | 0.00 | 74 | 1008.1 |
| 20260508045754 | 41 | 227 | 0.0 | 0.0 | 0.00 | 0.00 | 0.00 | 73 | 1008.1 |
| 20260508045257 | 41 | 227 | 0.0 | 0.0 | 0.00 | 0.00 | 0.00 | 72 | 1008.1 |
| 20260508044814 | 41 | 227 | 0.0 | 0.0 | 0.00 | 0.00 | 0.00 | 72 | 1008.1 |
| 20260508044327 | 42 | 227 | 0.0 | 0.0 | 0.00 | 0.00 | 0.00 | 72 | 1008.1 |
| 20260508043800 | 42 | 227 | 0.0 | 0.0 | 0.00 | 0.00 | 0.00 | 71 | 1008.4 |
| 20260508043256 | 42 | 227 | 0.0 | 0.0 | 0.00 | 0.00 | 0.00 | 71 | 1008.4 |
| 20260508042831 | 42 | 227 | 0.0 | 0.0 | 0.00 | 0.00 | 0.00 | 71 | 1008.4 |
| 20260508042301 | 42 | 227 | 0.0 | 0.0 | 0.00 | 0.00 | 0.00 | 70 | 1008.4 |
| 20260508041758 | 42 | 227 | 0.0 | 0.0 | 0.00 | 0.00 | 0.00 | 70 | 1008.4 |
| 20260508041256 | 43 | 227 | 0.0 | 0.0 | 0.00 | 0.00 | 0.00 | 70 | 1008.4 |
| 20260508040755 | 43 | 227 | 0.0 | 0.0 | 0.00 | 0.00 | 0.00 | 70 | 1008.4 |
| 20260508040304 | 43 | 227 | 0.0 | 0.0 | 0.00 | 0.00 | 0.00 | 69 | 1008.4 |
| 20260508035801 | 43 | 227 | 0.0 | 0.0 | 0.00 | 0.00 | 0.00 | 69 | 1008.4 |
| 20260508035259 | 43 | 227 | 0.0 | 0.0 | 0.00 | 0.00 | 0.00 | 68 | 1008.3 |
| 20260508034814 | 44 | 227 | 0.0 | 0.0 | 0.00 | 0.00 | 0.00 | 68 | 1008.3 |
| 20260508034309 | 44 | 227 | 0.0 | 0.0 | 0.00 | 0.00 | 0.00 | 67 | 1008.3 |
| 20260508033835 | 44 | 227 | 0.0 | 0.0 | 0.00 | 0.00 | 0.00 | 67 | 1008.3 |
| 20260508033302 | 44 | 227 | 0.0 | 0.0 | 0.00 | 0.00 | 0.00 | 67 | 1008.3 |
| 20260508032756 | 44 | 227 | 0.0 | 0.0 | 0.00 | 0.00 | 0.00 | 66 | 1008.3 |
| 20260508032314 | 45 | 227 | 0.0 | 0.0 | 0.00 | 0.00 | 0.00 | 65 | 1008.2 |
| 20260508031810 | 45 | 227 | 0.0 | 0.0 | 0.00 | 0.00 | 0.00 | 65 | 1008.2 |
| 20260508031302 | 45 | 227 | 0.0 | 0.0 | 0.00 | 0.00 | 0.00 | 65 | 1008.2 |
| 20260508030758 | 45 | 227 | 0.0 | 0.0 | 0.00 | 0.00 | 0.00 | 64 | 1008.1 |
| 20260508030303 | 46 | 227 | 0.0 | 0.0 | 0.00 | 0.00 | 0.00 | 63 | 1008.1 |
| 20260508025757 | 46 | 227 | 0.0 | 0.0 | 0.00 | 0.00 | 0.00 | 62 | 1008.1 |
| 20260508025310 | 46 | 227 | 0.0 | 0.0 | 0.00 | 0.00 | 0.00 | 60 | 1008.2 |
| 20260508024804 | 47 | 227 | 0.0 | 0.0 | 0.00 | 0.00 | 0.00 | 60 | 1008.2 |
| 20260508024259 | 47 | 227 | 0.0 | 0.0 | 0.00 | 0.00 | 0.00 | 59 | 1008.2 |
| 20260508023818 | 47 | 227 | 0.0 | 0.0 | 0.00 | 0.00 | 0.00 | 59 | 1008.2 |
| 20260508023259 | 47 | 227 | 0.0 | 0.0 | 0.00 | 0.00 | 0.00 | 59 | 1008.2 |
| 20260508022802 | 48 | 227 | 0.0 | 0.0 | 0.00 | 0.00 | 0.00 | 58 | 1008.2 |
| 20260508022256 | 48 | 227 | 0.0 | 0.0 | 0.00 | 0.00 | 0.00 | 57 | 1008.2 |
| 20260508021809 | 48 | 227 | 0.0 | 0.0 | 0.00 | 0.00 | 0.00 | 58 | 1008.2 |
| 20260508021305 | 49 | 227 | 0.0 | 0.0 | 0.00 | 0.00 | 0.00 | 56 | 1008.2 |
| 20260508020803 | 49 | 227 | 0.0 | 0.0 | 0.00 | 0.00 | 0.00 | 55 | 1008.1 |
| 20260508020301 | 49 | 227 | 0.0 | 0.0 | 0.00 | 0.00 | 0.00 | 53 | 1008.1 |
| 20260508015756 | 50 | 227 | 0.0 | 0.0 | 0.00 | 0.00 | 0.00 | 53 | 1008.1 |
| 20260508015311 | 50 | 227 | 0.0 | 0.0 | 0.00 | 0.00 | 0.00 | 51 | 1008.1 |
| 20260508014754 | 50 | 227 | 0.0 | 0.0 | 0.00 | 0.00 | 0.00 | 50 | 1008.1 |
| 20260508014308 | 50 | 227 | 0.0 | 0.0 | 0.00 | 0.00 | 0.00 | 49 | 1008.1 |
| 20260508013805 | 51 | 227 | 0.0 | 0.0 | 0.00 | 0.00 | 0.00 | 49 | 1007.9 |
| 20260508013258 | 51 | 227 | 0.0 | 0.0 | 0.00 | 0.00 | 0.00 | 48 | 1007.9 |
| 20260508012814 | 51 | 227 | 0.0 | 0.0 | 0.00 | 0.00 | 0.00 | 47 | 1007.9 |
| 20260508012314 | 52 | 227 | 0.0 | 0.0 | 0.00 | 0.00 | 0.00 | 47 | 1007.8 |
| 20260508011802 | 52 | 226 | 0.0 | 0.0 | 0.00 | 0.00 | 0.00 | 45 | 1007.8 |
| 20260508011257 | 52 | 227 | 0.0 | 0.0 | 0.00 | 0.00 | 0.00 | 44 | 1007.8 |
| 20260508010807 | 53 | 227 | 0.0 | 0.0 | 0.00 | 0.00 | 0.00 | 43 | 1007.5 |
| 20260508010259 | 53 | 227 | 0.0 | 0.0 | 0.00 | 0.00 | 0.00 | 43 | 1007.5 |
| 20260508005812 | 53 | 226 | 0.0 | 0.0 | 0.00 | 0.06 | 0.00 | 43 | 1007.5 |
| 20260508005306 | 53 | 226 | 0.0 | 0.0 | 0.00 | 0.06 | 0.00 | 43 | 1007.4 |
| 20260508004758 | 54 | 360 | 0.0 | 0.0 | 0.00 | 0.06 | 0.00 | 42 | 1007.4 |
| 20260508004311 | 54 | 360 | 0.0 | 0.0 | 0.00 | 0.06 | 0.00 | 42 | 1007.4 |
| 20260508003833 | 54 | 360 | 0.0 | 0.0 | 0.00 | 0.06 | 0.00 | 41 | 1007.3 |
| 20260508003325 | 54 | 360 | 0.0 | 2.0 | 0.00 | 0.06 | 0.00 | 41 | 1007.3 |
| 20260508002809 | 54 | 360 | 1.0 | 5.0 | 0.00 | 0.06 | 0.00 | 40 | 1007.3 |
| 20260508002323 | 54 | 360 | 1.0 | 5.0 | 0.00 | 0.06 | 0.00 | 40 | 1007.1 |
| 20260508001815 | 54 | 360 | 0.0 | 3.0 | 0.00 | 0.06 | 0.00 | 41 | 1007.1 |
| 20260508001309 | 55 | 360 | 1.0 | 3.0 | 0.00 | 0.06 | 0.00 | 40 | 1007.1 |
| 20260508000809 | 55 | 360 | 0.0 | 1.0 | 0.00 | 0.06 | 0.00 | 42 | 1007.0 |
| 20260508000302 | 55 | 360 | 0.0 | 1.0 | 0.00 | 0.06 | 0.00 | 40 | 1007.0 |
| 20260507235814 | 55 | 360 | 0.0 | 3.0 | 0.00 | 0.06 | 0.00 | 40 | 1007.0 |
| 20260507235307 | 55 | 360 | 1.0 | 3.0 | 0.00 | 0.06 | 0.00 | 41 | 1006.8 |
| 20260507234802 | 56 | 360 | 0.0 | 2.0 | 0.00 | 0.06 | 0.00 | 41 | 1006.8 |
| 20260507234300 | 56 | 360 | 0.0 | 2.0 | 0.00 | 0.06 | 0.00 | 40 | 1006.8 |
| 20260507233800 | 56 | 360 | 0.0 | 2.0 | 0.00 | 0.06 | 0.00 | 40 | 1006.7 |
| 20260507233259 | 56 | 360 | 0.0 | 2.0 | 0.00 | 0.06 | 0.00 | 39 | 1006.7 |
| 20260507232817 | 56 | 360 | 1.0 | 3.0 | 0.00 | 0.06 | 0.00 | 38 | 1006.7 |
| 20260507232311 | 56 | 360 | 1.0 | 3.0 | 0.00 | 0.06 | 0.00 | 38 | 1006.4 |
| 20260507231812 | 56 | 360 | 1.0 | 3.0 | 0.00 | 0.06 | 0.00 | 38 | 1006.4 |
| 20260507231308 | 57 | 360 | 1.0 | 4.0 | 0.00 | 0.06 | 0.00 | 37 | 1006.4 |
| 20260507230823 | 57 | 360 | 1.0 | 4.0 | 0.00 | 0.06 | 0.00 | 37 | 1006.6 |
| 20260507230311 | 57 | 360 | 0.0 | 4.0 | 0.00 | 0.06 | 0.00 | 38 | 1006.6 |
| 20260507225813 | 57 | 360 | 0.0 | 6.0 | 0.00 | 0.06 | 0.00 | 37 | 1006.6 |
| 20260507225332 | 57 | 360 | 2.0 | 6.0 | 0.00 | 0.06 | 0.00 | 36 | 1006.7 |
| 20260507224809 | 58 | 360 | 0.0 | 5.0 | 0.00 | 0.06 | 0.00 | 36 | 1006.7 |
| 20260507224302 | 58 | 360 | 3.0 | 7.0 | 0.00 | 0.06 | 0.00 | 35 | 1006.7 |
| 20260507223758 | 58 | 360 | 3.0 | 7.0 | 0.00 | 0.06 | 0.00 | 35 | 1006.5 |
| 20260507223253 | 58 | 360 | 2.0 | 5.0 | 0.00 | 0.06 | 0.00 | 35 | 1006.5 |
| 20260507222808 | 59 | 360 | 2.0 | 5.0 | 0.00 | 0.06 | 0.00 | 35 | 1006.5 |
| 20260507222306 | 59 | 360 | 1.0 | 5.0 | 0.00 | 0.06 | 0.00 | 35 | 1006.3 |
| 20260507221801 | 59 | 360 | 2.0 | 5.0 | 0.00 | 0.06 | 0.00 | 35 | 1006.3 |
| 20260507221311 | 59 | 360 | 1.0 | 3.0 | 0.00 | 0.06 | 0.00 | 34 | 1006.3 |
| 20260507220802 | 60 | 360 | 2.0 | 3.0 | 0.00 | 0.06 | 0.00 | 34 | 1006.3 |
| 20260507220335 | 60 | 360 | 0.0 | 3.0 | 0.00 | 0.06 | 0.00 | 35 | 1006.3 |
| 20260507215807 | 60 | 360 | 1.0 | 5.0 | 0.00 | 0.06 | 0.00 | 34 | 1006.3 |
| 20260507215307 | 61 | 360 | 2.0 | 5.0 | 0.00 | 0.06 | 0.00 | 33 | 1006.3 |
| 20260507214801 | 61 | 360 | 1.0 | 5.0 | 0.00 | 0.06 | 0.00 | 34 | 1006.3 |
| 20260507214303 | 61 | 360 | 2.0 | 6.0 | 0.00 | 0.06 | 0.00 | 33 | 1006.3 |
| 20260507213759 | 61 | 360 | 2.0 | 6.0 | 0.00 | 0.06 | 0.00 | 33 | 1006.2 |
| 20260507213253 | 61 | 360 | 2.0 | 6.0 | 0.00 | 0.06 | 0.00 | 33 | 1006.2 |
| 20260507212827 | 61 | 360 | 2.0 | 4.0 | 0.00 | 0.06 | 0.00 | 33 | 1006.2 |
| 20260507212300 | 61 | 360 | 1.0 | 5.0 | 0.00 | 0.06 | 0.00 | 34 | 1006.3 |
| 20260507211755 | 61 | 360 | 1.0 | 5.0 | 0.00 | 0.06 | 0.00 | 33 | 1006.3 |
| 20260507211256 | 61 | 360 | 2.0 | 6.0 | 0.00 | 0.06 | 0.00 | 32 | 1006.3 |
| 20260507210756 | 61 | 360 | 2.0 | 6.0 | 0.00 | 0.06 | 0.00 | 33 | 1006.1 |
| 20260507210307 | 61 | 360 | 2.0 | 6.0 | 0.00 | 0.06 | 0.00 | 34 | 1006.1 |
| 20260507205805 | 61 | 360 | 2.0 | 7.0 | 0.00 | 0.07 | 0.00 | 34 | 1006.1 |